FENGYUN 1C DEB, 35122

Orbit data source: Space-Track

FENGYUN 1C DEB, 35122 is space debris in SSO originally from a launch on Mon, 10 May 1999 UTC launched from the Taiyaun Space Center, China (TSC). Fengyun 1C debris stems from the Chinese weather satellite Fengyun-1C, which was intentionally destroyed by a Chinese anti-satellite missile in 2007. This event dramatically increased the amount of space debris, with thousands of trackable fragments posing hazards to satellites and human spaceflight. The Fengyun 1C debris cloud has become a focal point in discussions about space sustainability and the need for international regulations to prevent the creation of new debris.

Loading next visibility...
Identifier
35122, 1999-025DLA
Orbit
SSO
Country
Flag of CNCN / PRC
Related business
Manufacturer
Unknown
Mission
Spacecraft
Bus & Motor
Unknown
Mass
Unknown
Launch date (UTC)
1999-05-10 (27 years ago)
Launch vehicle
Unknown
Launch site
Taiyaun Space Center, China (TSC)
Object type
Payload
Rocket body
Debris
Shape & HBR
Unknown shape, 0.1 m
Radar Cross Section
Small (<0.1 m²)

Expand to show TLE details & history
Last TLE update: 2 days ago

TLE from 2 days ago
0 FENGYUN 1C DEB
1 35122U 99025DLA 26263.31274983  .00000278  00000-0  16659-3 0  9991
2 35122  98.6588 278.2795 0026018  75.9204 284.4859 14.14404433678473
Epoch: 2026-09-20T07:30Z
TLE epoch observation values (Epoch: 2026-09-20T07:30:21.585Z)
Latitude
-0.00001°
Longitude
166.48083°
Altitude
842.592 km
Speed
7.434 km/s
True Right ascension
18h 33m 07s
True Declination
0° 00' 00"
Sunlit
Object was in daylight at epoch
Visualization orbit readout
Latitude
Unknown
Longitude
Unknown
Altitude
Unknown
Speed
Unknown
Apparent Right ascension
Unknown
Apparent Declination
Unknown
Sunlit
N/A
Visualization observer readout
Local Sidereal Time
23:25:28
Azimuth
Unknown
Elevation
Unknown
Doppler factor
Unknown
Orbital elements
Apogee altitude
860.287 km
Perigee altitude
822.718 km
Semi-major axis
7,219.64 km
Eccentricity
0.0026
Inclination
98.6588°
RAAN
278.2795°
Arg. of periapsis
75.9204°
True anomaly
284.197°
Mean anomaly
284.4859°
Eccentric anomaly
284.34147°
Mean motion
3.5381 °/min
Orbital period
101.75 mins
BSTAR
0.00016659
Loading maneuver chart data...
Computing Atmospheric mass density...

Documentation

Showing up to 5 results
|